Weather in Uluwatu

Indonesia     8°49′40″S   115°05′10″E
temp.,
°C
wind,
m/s
gust,
m/s
humid.,
%
clouds,
%
prec.,
mm/h
press.,
hPa
HPBL,
m
16 april, fri
fri1623:00+29ese556914 0.0 1012947
02:00+28e34725 0.1 1011778
05:00+27e34759 0.4 1010548
08:00+28e347499 0.4 1012707
11:00+29se447129 0.1 1012836
14:00+29se5570100 0.1 1009766
17:00+29se557098 0.0 1009825
20:00+29se4572100 0.1 1011910
17 april, sat
sat1723:00+28ese457369 1.3 1012836
02:00+28e347310 2.0 1011719
05:00+28e45725 1.1 1011939
08:00+28e567390 1.9 1013829
11:00+29ese6668100 0.9 1012958
14:00+29se77716 0.9 1010834
17:00+29se6670100 0.0 1009967
20:00+29ese566994 0.0 10121048
18 april, sun
sun1823:00+28e557154 0.6 1013794
02:00+27e55758 0.9 1011743
05:00+27ese677634 2.4 1011798
08:00+27ene577913 4.3 1013729
11:00+29ese6771100 1.0 1012945
14:00+29ese787299 1.7 1009928
17:00+28se7875100 3.0 1009865
20:00+29se8973100 4.3 10111163
19 april, mon
mon1923:00+28ese787416 1.1 1012941
02:00+28ese787324 2.2 10111008
05:00+28e677227 1.6 1011943
08:00+28e676930 1.8 10121150
11:00+29se676732 0.0 10121217
14:00+29se6767100 0.0 10091180
17:00+29se666743 0.0 10091135
20:00+29se566614 0.1 10111171
20 april, tue
tue2023:00+28ese44665 0.0 10111018
02:00+27ese337260 0.4 1010631
05:00+28se556793 1.0 1010933
08:00+28se556179 1.1 10121189
11:00+28se54591 0.0 10111110
14:00+28sse44565 0.0 10091111
17:00+28sse445698 0.0 10091219
20:00+28se3356100 0.0 10111317